FENGYUN 1C DEB, 31642

Orbit data source: Space-Track

FENGYUN 1C DEB, 31642 is space debris in SSO originally from a launch on Mon, 10 May 1999 UTC launched from the Taiyaun Space Center, China (TSC). Fengyun 1C debris stems from the Chinese weather satellite Fengyun-1C, which was intentionally destroyed by a Chinese anti-satellite missile in 2007. This event dramatically increased the amount of space debris, with thousands of trackable fragments posing hazards to satellites and human spaceflight. The Fengyun 1C debris cloud has become a focal point in discussions about space sustainability and the need for international regulations to prevent the creation of new debris.

Loading next visibility...
Identifier
31642, 1999-025CAY
Orbit
SSO
Country
Flag of CNCN / PRC
Related business
Manufacturer
Unknown
Mission
Spacecraft
Bus & Motor
Unknown
Mass
Unknown
Launch date (UTC)
1999-05-10 (27 years ago)
Launch vehicle
Unknown
Launch site
Taiyaun Space Center, China (TSC)
Object type
Payload
Rocket body
Debris
Shape & HBR
Unknown shape, 0.1 m
Radar Cross Section
Medium (>0.1 m² and <1 m²)

Expand to show TLE details & history
Last TLE update: 23 hours ago

TLE from 23 hours ago
0 FENGYUN 1C DEB
1 31642U 99025CAY 26207.47401059  .00000569  00000-0  20452-3 0  9994
2 31642  98.4901 290.6080 0118084 307.6787  51.3735 14.33820907  2209
Epoch: 2026-07-26T11:22Z
TLE epoch observation values (Epoch: 2026-07-26T11:22:34.514Z)
Latitude
0.00002°
Longitude
175.79276°
Altitude
729.777 km
Speed
7.517 km/s
True Right ascension
19h 22m 25s
True Declination
0° 00' 00"
Sunlit
Object was in full shadow at epoch
Visualization orbit readout
Latitude
Unknown
Longitude
Unknown
Altitude
Unknown
Speed
Unknown
Apparent Right ascension
Unknown
Apparent Declination
Unknown
Sunlit
N/A
Visualization observer readout
Local Sidereal Time
00:03:21
Azimuth
Unknown
Elevation
Unknown
Doppler factor
Unknown
Orbital elements
Apogee altitude
860.597 km
Perigee altitude
691.636 km
Semi-major axis
7,154.254 km
Eccentricity
0.01181
Inclination
98.4901°
RAAN
290.608°
Arg. of periapsis
307.6787°
True anomaly
52.44038°
Mean anomaly
51.3735°
Eccentric anomaly
51.90596°
Mean motion
3.58671 °/min
Orbital period
100.37 mins
BSTAR
0.00020452
Loading maneuver chart data...
Computing Atmospheric mass density...
Loading historical data...
Loading historical data...
Loading historical data...
Loading historical data...
Loading historical data...
Loading historical data...
Loading historical data...

Documentation

Showing up to 5 results
|